Moose Lake, MN

1:39 AM CDT on May 30, 2017 (GMT -0500)
Moose Lake-Carlton County

Weather History for KMZH - November, 2012

Change the Weather History Date:

Wednesday, November 7, 2012

  Actual Average Record
Temperature  
Mean Temperature 38 °F -  
Max Temperature 41 °F 42 °F 67 °F (1949)
Min Temperature 35 °F 23 °F -9 °F (1951)
Degree Days  
Heating Degree Days 27    
Moisture  
Dew Point 30 °F    
Average Humidity 75    
Maximum Humidity 87    
Minimum Humidity 61    
Precipitation  
Precipitation 0.00 in - - ()
Sea Level Pressure  
Sea Level Pressure 30.02 in    
Wind  
Wind Speed 3 mph (WSW)    
Max Wind Speed 8 mph    
Max Gust Speed -    
Visibility 10 miles    
Events Rain    
Averages and records for this station are not official NWS values.
T = Trace of Precipitation, MM = Missing Value Source: NWS Daily Summary

Daily Weather History Graph

Daily Weather History Graph

Search for Another Location

Airport or City:

Trip Planner

Search our weather history database for the weather conditions in past years. The results will help you decide how hot, cold, wet, or windy it might be!

Date:

Astronomy

Nov. 07, 2012 Rise Set
Actual Time 7:02 AM CST 4:47 PM CST
Civil Twilight 6:30 AM CST 5:19 PM CST
Nautical Twilight 5:54 AM CST 5:55 PM CST
Astronomical Twilight 5:18 AM CST 6:30 PM CST
Moon No Moon Rise 1:18 PM CST (11/7)
Length of Visible Light 10h 49m
Length of Day
9h 45m
Last Quarter, 43% of the Moon is Illuminated
Nov 7
Last Quarter
Nov 13
New
Nov 20
First Quarter
Nov 28
Full
Dec 6
Last Quarter

Hourly Weather History & Observations

Time (CST) Temp. Windchill Dew Point Humidity Pressure Visibility Wind Dir Wind Speed Gust Speed Precip Events Conditions
12:10 AM 35.6 °F 32.8 °F 30.2 °F 81% 29.93 in 10.0 mi NW 3.5 mph - N/A   Overcast
12:30 AM 35.6 °F 31.7 °F 32.0 °F 87% 29.94 in 10.0 mi NW 4.6 mph - N/A   Overcast
12:50 AM 35.6 °F 29.9 °F 32.0 °F 87% 29.95 in 10.0 mi NW 6.9 mph - N/A   Overcast
1:10 AM 35.6 °F 31.7 °F 32.0 °F 87% 29.95 in 10.0 mi NW 4.6 mph - N/A   Overcast
1:30 AM 35.6 °F 32.8 °F 32.0 °F 87% 29.96 in 10.0 mi NW 3.5 mph - N/A   Overcast
1:50 AM 35.6 °F 32.8 °F 32.0 °F 87% 29.96 in 10.0 mi NW 3.5 mph - N/A   Overcast
2:10 AM 35.6 °F 30.7 °F 32.0 °F 87% 29.96 in 10.0 mi NW 5.8 mph - N/A   Overcast
2:50 AM 35.6 °F 31.7 °F 30.2 °F 81% 29.97 in 10.0 mi NW 4.6 mph - N/A   Overcast
3:10 AM 35.6 °F 30.7 °F 30.2 °F 81% 29.98 in 10.0 mi NW 5.8 mph - N/A   Overcast
3:30 AM 35.6 °F 30.7 °F 30.2 °F 81% 29.98 in 10.0 mi NW 5.8 mph - N/A   Overcast
3:50 AM 35.6 °F 32.8 °F 30.2 °F 81% 29.99 in 10.0 mi NW 3.5 mph - N/A   Overcast
4:10 AM 35.6 °F 32.8 °F 30.2 °F 81% 29.99 in 10.0 mi NW 3.5 mph - N/A   Overcast
4:30 AM 35.6 °F 32.8 °F 30.2 °F 81% 30.00 in 10.0 mi NW 3.5 mph - N/A   Overcast
4:50 AM 35.6 °F - 30.2 °F 81% 30.00 in 10.0 mi Calm Calm - N/A   Overcast
5:10 AM 35.6 °F - 30.2 °F 81% 30.01 in 10.0 mi Calm Calm - N/A   Overcast
5:30 AM 35.6 °F 31.7 °F 30.2 °F 81% 30.01 in 10.0 mi WNW 4.6 mph - N/A   Overcast
5:50 AM 35.6 °F - 30.2 °F 81% 30.02 in 10.0 mi Calm Calm - N/A   Overcast
6:10 AM 35.6 °F - 30.2 °F 81% 30.01 in 10.0 mi Calm Calm - N/A   Overcast
6:30 AM 35.6 °F - 30.2 °F 81% 30.02 in 10.0 mi Calm Calm - N/A   Overcast
6:50 AM 35.6 °F - 30.2 °F 81% 30.03 in 10.0 mi Calm Calm - N/A   Overcast
7:10 AM 35.6 °F - 30.2 °F 81% 30.03 in 10.0 mi Calm Calm - N/A   Overcast
7:30 AM 35.6 °F - 30.2 °F 81% 30.04 in 10.0 mi Calm Calm - N/A   Overcast
7:50 AM 35.6 °F - 30.2 °F 81% 30.04 in 10.0 mi Calm Calm - N/A   Overcast
8:10 AM 35.6 °F - 30.2 °F 81% 30.05 in 10.0 mi Calm Calm - N/A   Overcast
8:30 AM 35.6 °F - 30.2 °F 81% 30.06 in 10.0 mi Calm Calm - N/A   Overcast
8:50 AM 35.6 °F - 30.2 °F 81% 30.05 in 10.0 mi Calm Calm - N/A   Overcast
9:10 AM 35.6 °F - 30.2 °F 81% 30.06 in 10.0 mi Calm Calm - N/A   Overcast
9:30 AM 35.6 °F - 30.2 °F 81% 30.06 in 10.0 mi Calm Calm - N/A   Overcast
9:50 AM 35.6 °F 32.8 °F 30.2 °F 81% 30.06 in 10.0 mi NNW 3.5 mph - N/A   Overcast
10:10 AM 37.4 °F - 30.2 °F 75% 30.06 in 10.0 mi Calm Calm - N/A   Overcast
10:30 AM 37.4 °F 34.9 °F 30.2 °F 75% 30.06 in 10.0 mi West 3.5 mph - N/A   Overcast
10:50 AM 37.4 °F - 30.2 °F 75% 30.06 in 10.0 mi Calm Calm - N/A   Overcast
11:10 AM 37.4 °F - 30.2 °F 75% 30.06 in 10.0 mi Calm Calm - N/A   Overcast
11:30 AM 37.4 °F - 30.2 °F 75% 30.05 in 10.0 mi Calm Calm - N/A   Overcast
11:50 AM 39.2 °F - 30.2 °F 70% 30.04 in 10.0 mi Calm Calm - N/A   Overcast
12:10 PM 39.2 °F - 30.2 °F 70% 30.04 in 10.0 mi Calm Calm - N/A   Overcast
12:30 PM 39.2 °F 37.0 °F 30.2 °F 70% 30.04 in 10.0 mi WSW 3.5 mph - N/A   Overcast
12:50 PM 41.0 °F 39.0 °F 30.2 °F 65% 30.04 in 10.0 mi WSW 3.5 mph - N/A   Overcast
1:10 PM 41.0 °F 38.0 °F 30.2 °F 65% 30.03 in 10.0 mi WSW 4.6 mph - N/A   Overcast
1:30 PM 41.0 °F 38.0 °F 30.2 °F 65% 30.03 in 10.0 mi West 4.6 mph - N/A   Overcast
1:50 PM 41.0 °F 39.0 °F 30.2 °F 65% 30.03 in 10.0 mi WSW 3.5 mph - N/A   Overcast
2:10 PM 41.0 °F - 28.4 °F 61% 30.01 in 10.0 mi Calm Calm - N/A   Overcast
2:30 PM 41.0 °F - 28.4 °F 61% 30.02 in 10.0 mi Calm Calm - N/A   Overcast
2:50 PM 41.0 °F - 28.4 °F 61% 30.02 in 10.0 mi Calm Calm - N/A   Overcast
3:10 PM 41.0 °F - 28.4 °F 61% 30.02 in 10.0 mi Calm Calm - N/A   Overcast
3:35 PM 41.0 °F 39.0 °F 28.4 °F 61% 30.03 in 10.0 mi South 3.5 mph - N/A   Overcast
3:50 PM 41.0 °F 39.0 °F 28.4 °F 61% 30.03 in 10.0 mi SSE 3.5 mph - N/A   Overcast
4:10 PM 41.0 °F - 28.4 °F 61% 30.03 in 10.0 mi Calm Calm - N/A   Overcast
4:30 PM 41.0 °F - 28.4 °F 61% 30.03 in 10.0 mi Calm Calm - N/A   Overcast
4:50 PM 41.0 °F - 30.2 °F 65% 30.03 in 10.0 mi Calm Calm - N/A   Overcast
5:10 PM 39.2 °F - 28.4 °F 65% 30.04 in 10.0 mi Calm Calm - N/A   Overcast
5:30 PM 39.2 °F - 30.2 °F 70% 30.03 in 10.0 mi Calm Calm - N/A   Overcast
5:50 PM 39.2 °F - 30.2 °F 70% 30.03 in 10.0 mi Calm Calm - N/A   Overcast
6:10 PM 39.2 °F - 30.2 °F 70% 30.03 in 10.0 mi Calm Calm - N/A   Overcast
6:32 PM 39.2 °F 37.0 °F 30.2 °F 70% 30.03 in 10.0 mi SSE 3.5 mph - N/A   Overcast
6:50 PM 39.2 °F 37.0 °F 28.4 °F 65% 30.02 in 10.0 mi SSE 3.5 mph - N/A   Overcast
7:10 PM 37.4 °F - 28.4 °F 70% 30.02 in 10.0 mi Calm Calm - N/A   Overcast
7:30 PM 37.4 °F - 28.4 °F 70% 30.02 in 10.0 mi Calm Calm - N/A   Overcast
7:50 PM 37.4 °F - 28.4 °F 70% 30.02 in 10.0 mi Calm Calm - N/A   Mostly Cloudy
8:10 PM 35.6 °F - 28.4 °F 75% 30.02 in 10.0 mi Calm Calm - N/A   Clear
8:30 PM 35.6 °F 31.7 °F 28.4 °F 75% 30.01 in 10.0 mi South 4.6 mph - N/A   Scattered Clouds
8:50 PM 35.6 °F 31.7 °F 30.2 °F 81% 30.00 in 10.0 mi SSE 4.6 mph - N/A   Clear
9:10 PM 35.6 °F 31.7 °F 30.2 °F 81% 30.01 in 10.0 mi South 4.6 mph - N/A   Clear
9:30 PM 35.6 °F 31.7 °F 30.2 °F 81% 30.01 in 10.0 mi South 4.6 mph - N/A   Clear
9:50 PM 35.6 °F 31.7 °F 30.2 °F 81% 30.01 in 10.0 mi South 4.6 mph - N/A   Clear
10:10 PM 35.6 °F 30.7 °F 30.2 °F 81% 30.01 in 10.0 mi South 5.8 mph - N/A   Scattered Clouds
10:30 PM 37.4 °F 32.8 °F 30.2 °F 75% 30.01 in 10.0 mi SSW 5.8 mph - N/A   Scattered Clouds
10:50 PM 37.4 °F 32.8 °F 30.2 °F 75% 30.00 in 10.0 mi South 5.8 mph - N/A   Mostly Cloudy
11:10 PM 37.4 °F 32.1 °F 30.2 °F 75% 29.98 in 10.0 mi South 6.9 mph - N/A Rain Light Rain
11:30 PM 37.4 °F 31.4 °F 30.2 °F 75% 29.99 in 10.0 mi South 8.1 mph - N/A   Overcast
11:50 PM 37.4 °F 32.1 °F 30.2 °F 75% 29.99 in 10.0 mi South 6.9 mph - N/A   Overcast